Weather History for KTDF - January, 2013

Change the Weather History Date:

Wednesday, January 2, 2013

  Actual Average Record
Temperature  
Mean Temperature 40 °F -  
Max Temperature 44 °F 49 °F 75 °F (1985)
Min Temperature 35 °F 29 °F 10 °F (1969)
Degree Days  
Heating Degree Days 26    
Moisture  
Dew Point 39 °F    
Average Humidity 94    
Maximum Humidity 100    
Minimum Humidity 70    
Precipitation  
Precipitation 0.15 in - - ()
Sea Level Pressure  
Sea Level Pressure 30.08 in    
Wind  
Wind Speed 2 mph (NNE)    
Max Wind Speed 8 mph    
Max Gust Speed -    
Visibility 9 miles    
Events Rain    
Averages and records for this station are not official NWS values.
T = Trace of Precipitation, MM = Missing Value Source: NWS Daily Summary

Daily Weather History Graph

Daily Weather History Graph

Search for Another Location

Airport or City:

Trip Planner

Search our weather history database for the weather conditions in past years. The results will help you decide how hot, cold, wet, or windy it might be!

Date:

Astronomy

Jan. 02, 2013 Rise Set
Actual Time 7:27 AM EST 5:12 PM EST
Civil Twilight 6:58 AM EST 5:41 PM EST
Nautical Twilight 6:26 AM EST 6:13 PM EST
Astronomical Twilight 5:55 AM EST 6:44 PM EST
Moon 10:33 PM EST (1/2) 10:17 AM EST (1/2)
Length of Visible Light 10h 42m
Length of Day
9h 45m
Waning Gibbous, 75% of the Moon is Illuminated
Jan 2
Waning Gibbous
Jan 4
Last Quarter
Jan 11
New
Jan 18
First Quarter
Jan 26
Full

Hourly Weather History & Observations

Time (EST) Temp. Windchill Dew Point Humidity Pressure Visibility Wind Dir Wind Speed Gust Speed Precip Events Conditions
12:15 AM 44.6 °F - 44.6 °F 100% 29.97 in 3.0 mi Calm Calm - N/A Rain Light Rain
12:35 AM 44.6 °F - 44.6 °F 100% 29.97 in 2.5 mi Calm Calm - 0.01 in Rain Light Rain
12:55 AM 44.6 °F - 44.6 °F 100% 29.96 in 3.0 mi Calm Calm - 0.02 in Rain Light Rain
1:15 AM 44.6 °F - 44.6 °F 100% 29.95 in 3.0 mi Calm Calm - 0.01 in Rain Light Rain
1:35 AM 44.6 °F 43.1 °F 44.6 °F 100% 29.95 in 4.0 mi NNE 3.5 mph - 0.03 in Rain Light Rain
1:55 AM 44.6 °F 43.1 °F 44.6 °F 100% 29.95 in 7.0 mi NNE 3.5 mph - 0.04 in Rain Rain
2:15 AM 44.6 °F - 44.6 °F 100% 29.97 in 5.0 mi Calm Calm - 0.02 in Rain Rain
2:35 AM 44.6 °F 43.1 °F 44.6 °F 100% 29.97 in 5.0 mi North 3.5 mph - 0.05 in Rain Rain
2:55 AM 44.6 °F 40.7 °F 44.6 °F 100% 29.97 in 10.0 mi NE 6.9 mph - 0.06 in Rain Rain
3:15 AM 42.8 °F 39.3 °F 42.8 °F 100% 29.97 in 10.0 mi NNE 5.8 mph - N/A Rain Light Rain
3:35 AM 42.8 °F 40.1 °F 42.8 °F 100% 29.98 in 10.0 mi North 4.6 mph - N/A Rain Light Rain
3:55 AM 42.8 °F 39.3 °F 42.8 °F 100% 29.98 in 10.0 mi NNE 5.8 mph - N/A   Drizzle
4:15 AM 42.8 °F 40.1 °F 42.8 °F 100% 29.99 in 7.0 mi North 4.6 mph - 0.01 in   Drizzle
4:35 AM 42.8 °F 40.1 °F 42.8 °F 100% 29.99 in 5.0 mi North 4.6 mph - 0.01 in   Heavy Drizzle
4:55 AM 42.8 °F 41.1 °F 42.8 °F 100% 29.98 in 5.0 mi North 3.5 mph - 0.02 in   Heavy Drizzle
5:15 AM 42.8 °F 39.3 °F 42.8 °F 100% 30.00 in 5.0 mi North 5.8 mph - N/A   Light Drizzle
5:35 AM 41.0 °F - 41.0 °F 100% 29.99 in 5.0 mi Calm Calm - 0.01 in   Drizzle
5:55 AM 41.0 °F 37.1 °F 41.0 °F 100% 30.01 in 5.0 mi North 5.8 mph - 0.01 in   Drizzle
6:15 AM 41.0 °F 39.0 °F 41.0 °F 100% 30.00 in 4.0 mi North 3.5 mph - N/A   Drizzle
6:35 AM 41.0 °F - 41.0 °F 100% 30.02 in 5.0 mi Calm Calm - N/A   Drizzle
6:55 AM 41.0 °F - 41.0 °F 100% 30.01 in 10.0 mi Calm Calm - N/A   Overcast
7:15 AM 41.0 °F - 41.0 °F 100% 30.02 in 10.0 mi Calm Calm - N/A   Overcast
7:35 AM 41.0 °F - 41.0 °F 100% 30.03 in 10.0 mi Calm Calm - N/A   Overcast
7:55 AM 41.0 °F 39.0 °F 41.0 °F 100% 30.04 in 10.0 mi North 3.5 mph - N/A   Overcast
8:15 AM 41.0 °F 38.0 °F 41.0 °F 100% 30.05 in 10.0 mi North 4.6 mph - N/A   Overcast
8:35 AM 41.0 °F 36.4 °F 41.0 °F 100% 30.07 in 10.0 mi North 6.9 mph - N/A   Overcast
8:55 AM 41.0 °F 37.1 °F 41.0 °F 100% 30.08 in 10.0 mi North 5.8 mph - N/A   Overcast
9:15 AM 41.0 °F 38.0 °F 41.0 °F 100% 30.09 in 10.0 mi North 4.6 mph - N/A   Overcast
9:35 AM 41.0 °F 35.8 °F 41.0 °F 100% 30.10 in 10.0 mi North 8.1 mph - N/A   Overcast
9:55 AM 41.0 °F 35.8 °F 41.0 °F 100% 30.12 in 10.0 mi NNE 8.1 mph - N/A   Overcast
10:15 AM 41.0 °F 35.8 °F 39.2 °F 93% 30.12 in 10.0 mi NNE 8.1 mph - N/A   Mostly Cloudy
10:35 AM 41.0 °F 37.1 °F 39.2 °F 93% 30.12 in 10.0 mi NNE 5.8 mph - N/A   Mostly Cloudy
10:55 AM 41.0 °F 38.0 °F 39.2 °F 93% 30.12 in 10.0 mi North 4.6 mph - N/A   Overcast
11:15 AM 41.0 °F 36.4 °F 39.2 °F 93% 30.11 in 10.0 mi North 6.9 mph - N/A   Overcast
11:35 AM 41.0 °F 37.1 °F 37.4 °F 87% 30.12 in 10.0 mi North 5.8 mph - N/A   Overcast
11:55 AM 41.0 °F 37.1 °F 37.4 °F 87% 30.10 in 10.0 mi NNW 5.8 mph - N/A   Overcast
12:15 PM 42.8 °F 41.1 °F 39.2 °F 87% 30.10 in 10.0 mi NNW 3.5 mph - N/A   Overcast
12:35 PM 41.0 °F 39.0 °F 37.4 °F 87% 30.10 in 10.0 mi NNE 3.5 mph - N/A   Overcast
12:55 PM 41.0 °F 39.0 °F 37.4 °F 87% 30.08 in 10.0 mi NNE 3.5 mph - N/A   Overcast
1:15 PM 42.8 °F 38.6 °F 35.6 °F 76% 30.07 in 10.0 mi North 6.9 mph - N/A   Mostly Cloudy
1:35 PM 42.8 °F - 35.6 °F 76% 30.07 in 10.0 mi North - - N/A   Mostly Cloudy
1:55 PM 42.8 °F 41.1 °F 35.6 °F 76% 30.08 in 10.0 mi North 3.5 mph - N/A   Scattered Clouds
2:15 PM 42.8 °F 41.1 °F 33.8 °F 70% 30.08 in 10.0 mi NNW 3.5 mph - N/A   Scattered Clouds
2:35 PM 42.8 °F 41.1 °F 35.6 °F 76% 30.08 in 10.0 mi NE 3.5 mph - N/A   Scattered Clouds
2:55 PM 42.8 °F 41.1 °F 33.8 °F 70% 30.08 in 10.0 mi North 3.5 mph - N/A   Scattered Clouds
3:15 PM 42.8 °F - 35.6 °F 76% 30.10 in 10.0 mi Calm Calm - N/A   Scattered Clouds
3:35 PM 42.8 °F 41.1 °F 35.6 °F 76% 30.11 in 10.0 mi NE 3.5 mph - N/A   Mostly Cloudy
3:55 PM 42.8 °F - 35.6 °F 76% 30.10 in 10.0 mi Calm Calm - N/A   Overcast
4:15 PM 42.8 °F 41.1 °F 35.6 °F 76% 30.10 in 10.0 mi ENE 3.5 mph - N/A   Scattered Clouds
4:35 PM 42.8 °F - 35.6 °F 76% 30.13 in 10.0 mi Calm Calm - N/A   Clear
4:55 PM 41.0 °F - 35.6 °F 81% 30.13 in 10.0 mi Calm Calm - N/A   Clear
5:15 PM 41.0 °F - 35.6 °F 81% 30.13 in 10.0 mi Calm Calm - N/A   Clear
5:55 PM 39.2 °F - 35.6 °F 87% 30.14 in 10.0 mi Calm Calm - N/A   Clear
6:15 PM 39.2 °F - 37.4 °F 93% 30.14 in 10.0 mi Calm Calm - N/A   Clear
6:35 PM 37.4 °F - 37.4 °F 100% 30.15 in 10.0 mi Calm Calm - N/A   Clear
6:55 PM 37.4 °F 34.9 °F 35.6 °F 93% 30.14 in 10.0 mi East 3.5 mph - N/A   Clear
7:15 PM 37.4 °F - 35.6 °F 93% 30.18 in 10.0 mi Calm Calm - N/A   Clear
7:35 PM 37.4 °F - 37.4 °F 100% 30.17 in 10.0 mi Calm Calm - N/A   Clear
7:55 PM 37.4 °F - 35.6 °F 93% 30.16 in 10.0 mi Calm Calm - N/A   Clear
8:15 PM 37.4 °F - 37.4 °F 100% 30.18 in 10.0 mi Calm Calm - N/A   Clear
8:35 PM 37.4 °F - 37.4 °F 100% 30.16 in 10.0 mi Calm Calm - N/A   Clear
8:55 PM 37.4 °F - 37.4 °F 100% 30.16 in 10.0 mi Calm Calm - N/A   Scattered Clouds
9:15 PM 35.6 °F - 35.6 °F 100% 30.18 in 10.0 mi Calm Calm - N/A   Clear
9:35 PM 37.4 °F - 37.4 °F 100% 30.17 in 10.0 mi Calm Calm - N/A   Clear
9:55 PM 35.6 °F - 35.6 °F 100% 30.18 in 10.0 mi Calm Calm - N/A   Scattered Clouds
10:15 PM 35.6 °F - 35.6 °F 100% 30.19 in 10.0 mi Calm Calm - N/A   Scattered Clouds
10:35 PM 35.6 °F - 35.6 °F 100% 30.20 in 10.0 mi Calm Calm - N/A   Scattered Clouds
10:55 PM 35.6 °F - 35.6 °F 100% 30.19 in 10.0 mi Calm Calm - N/A   Clear
11:15 PM 35.6 °F - 35.6 °F 100% 30.20 in 7.0 mi Calm Calm - N/A   Clear
11:35 PM 35.6 °F - 35.6 °F 100% 30.20 in 7.0 mi Calm Calm - N/A   Clear
11:55 PM 35.6 °F - 35.6 °F 100% 30.20 in 10.0 mi Calm Calm - N/A   Mostly Cloudy